Year,Month,Day,Hour,Minute,Value (Times are PST for barometer in hPa)
2019,01,06,00,00,986.25
2019,01,06,00,01,986.25
2019,01,06,00,02,986.25
2019,01,06,00,03,986.22
2019,01,06,00,04,986.12
2019,01,06,00,05,986.08
2019,01,06,00,06,986.12
2019,01,06,00,07,986.15
2019,01,06,00,08,986.12
2019,01,06,00,09,986.12
2019,01,06,00,10,986.05
2019,01,06,00,11,986.08
2019,01,06,00,12,986.05
2019,01,06,00,13,986.05
2019,01,06,00,14,986.02
2019,01,06,00,15,985.98
2019,01,06,00,16,986.02
2019,01,06,00,17,985.91
2019,01,06,00,18,985.95
2019,01,06,00,19,985.88
2019,01,06,00,20,985.85
2019,01,06,00,21,985.88
2019,01,06,00,22,985.88
2019,01,06,00,23,985.85
2019,01,06,00,24,985.81
2019,01,06,00,25,985.81
2019,01,06,00,26,985.85
2019,01,06,00,27,985.81
2019,01,06,00,28,985.88
2019,01,06,00,29,985.85
2019,01,06,00,30,985.88
2019,01,06,00,31,985.88
2019,01,06,00,32,985.85
2019,01,06,00,33,985.88
2019,01,06,00,34,985.85
2019,01,06,00,35,985.81
2019,01,06,00,36,985.85
2019,01,06,00,37,985.81
2019,01,06,00,38,985.81
2019,01,06,00,39,985.81
2019,01,06,00,40,985.81
2019,01,06,00,41,985.78
2019,01,06,00,42,985.81
2019,01,06,00,43,985.81
2019,01,06,00,44,985.78
2019,01,06,00,45,985.88
2019,01,06,00,46,985.85
2019,01,06,00,47,985.78
2019,01,06,00,48,985.81
2019,01,06,00,49,985.74
2019,01,06,00,50,985.74
2019,01,06,00,51,985.78
2019,01,06,00,52,985.68
2019,01,06,00,53,985.61
2019,01,06,00,54,985.64
2019,01,06,00,55,985.68
2019,01,06,00,56,985.64
2019,01,06,00,57,985.61
2019,01,06,00,58,985.57
2019,01,06,00,59,985.71
2019,01,06,01,00,985.61
2019,01,06,01,01,985.54
2019,01,06,01,02,985.64
2019,01,06,01,03,985.61
2019,01,06,01,04,985.64
2019,01,06,01,05,985.54
2019,01,06,01,06,985.57
2019,01,06,01,07,985.61
2019,01,06,01,08,985.54
2019,01,06,01,09,985.47
2019,01,06,01,10,985.54
2019,01,06,01,11,985.51
2019,01,06,01,12,985.47
2019,01,06,01,13,985.47
2019,01,06,01,14,985.51
2019,01,06,01,15,985.51
2019,01,06,01,16,985.54
2019,01,06,01,17,985.54
2019,01,06,01,18,985.54
2019,01,06,01,19,985.64
2019,01,06,01,20,985.61
2019,01,06,01,21,985.57
2019,01,06,01,22,985.64
2019,01,06,01,23,985.64
2019,01,06,01,24,985.64
2019,01,06,01,25,985.71
2019,01,06,01,26,985.71
2019,01,06,01,27,985.85
2019,01,06,01,28,985.85
2019,01,06,01,29,985.81
2019,01,06,01,30,985.88
2019,01,06,01,31,985.91
2019,01,06,01,32,985.98
2019,01,06,01,33,986.02
2019,01,06,01,34,986.12
2019,01,06,01,35,986.15
2019,01,06,01,36,986.22
2019,01,06,01,37,986.25
2019,01,06,01,38,986.25
2019,01,06,01,39,986.32
2019,01,06,01,40,986.35
2019,01,06,01,41,986.35
2019,01,06,01,42,986.39
2019,01,06,01,43,986.32
2019,01,06,01,44,986.39
2019,01,06,01,45,986.42
2019,01,06,01,46,986.46
2019,01,06,01,47,986.42
2019,01,06,01,48,986.42
2019,01,06,01,49,986.46
2019,01,06,01,50,986.42
2019,01,06,01,51,986.46
2019,01,06,01,52,986.49
2019,01,06,01,53,986.52
2019,01,06,01,54,986.46
2019,01,06,01,55,986.46
2019,01,06,01,56,986.49
2019,01,06,01,57,986.49
2019,01,06,01,58,986.42
2019,01,06,01,59,986.42
2019,01,06,02,00,986.42
2019,01,06,02,01,986.49
2019,01,06,02,02,986.46
2019,01,06,02,03,986.46
2019,01,06,02,04,986.49
2019,01,06,02,05,986.52
2019,01,06,02,06,986.56
2019,01,06,02,07,986.56
2019,01,06,02,08,986.66
2019,01,06,02,09,986.62
2019,01,06,02,10,986.69
2019,01,06,02,11,986.73
2019,01,06,02,12,986.83
2019,01,06,02,13,986.79
2019,01,06,02,14,986.83
2019,01,06,02,15,986.79
2019,01,06,02,16,986.90
2019,01,06,02,17,987.00
2019,01,06,02,18,987.06
2019,01,06,02,19,987.20
2019,01,06,02,20,987.13
2019,01,06,02,21,987.00
2019,01,06,02,22,986.90
2019,01,06,02,23,986.76
2019,01,06,02,24,986.76
2019,01,06,02,25,986.90
2019,01,06,02,26,987.03
2019,01,06,02,27,987.00
2019,01,06,02,28,986.93
2019,01,06,02,29,986.90
2019,01,06,02,30,986.96
2019,01,06,02,31,987.13
2019,01,06,02,32,987.30
2019,01,06,02,33,987.40
2019,01,06,02,34,987.78
2019,01,06,02,35,988.15
2019,01,06,02,36,988.11
2019,01,06,02,37,988.08
2019,01,06,02,38,988.08
2019,01,06,02,39,988.11
2019,01,06,02,40,988.28
2019,01,06,02,41,988.25
2019,01,06,02,42,988.39
2019,01,06,02,43,988.45
2019,01,06,02,44,988.66
2019,01,06,02,45,988.59
2019,01,06,02,46,988.55
2019,01,06,02,47,988.69
2019,01,06,02,48,988.76
2019,01,06,02,49,988.72
2019,01,06,02,50,988.83
2019,01,06,02,51,988.72
2019,01,06,02,52,988.93
2019,01,06,02,53,988.83
2019,01,06,02,54,988.99
2019,01,06,02,55,988.86
2019,01,06,02,56,988.96
2019,01,06,02,57,989.13
2019,01,06,02,58,989.03
2019,01,06,02,59,989.16
2019,01,06,03,00,989.20
2019,01,06,03,01,989.23
2019,01,06,03,02,989.33
2019,01,06,03,03,989.33
2019,01,06,03,04,989.33
2019,01,06,03,05,989.44
2019,01,06,03,06,989.27
2019,01,06,03,07,989.50
2019,01,06,03,08,989.64
2019,01,06,03,09,989.60
2019,01,06,03,10,989.57
2019,01,06,03,11,989.67
2019,01,06,03,12,989.74
2019,01,06,03,13,989.77
2019,01,06,03,14,989.77
2019,01,06,03,15,989.81
2019,01,06,03,16,989.88
2019,01,06,03,17,990.08
2019,01,06,03,18,990.08
2019,01,06,03,19,989.94
2019,01,06,03,20,990.04
2019,01,06,03,21,990.15
2019,01,06,03,22,990.04
2019,01,06,03,23,990.11
2019,01,06,03,24,990.08
2019,01,06,03,25,990.18
2019,01,06,03,26,990.15
2019,01,06,03,27,990.15
2019,01,06,03,28,990.35
2019,01,06,03,29,990.25
2019,01,06,03,30,990.42
2019,01,06,03,31,990.38
2019,01,06,03,32,990.38
2019,01,06,03,33,990.49
2019,01,06,03,34,990.52
2019,01,06,03,35,990.45
2019,01,06,03,36,990.55
2019,01,06,03,37,990.52
2019,01,06,03,38,990.52
2019,01,06,03,39,990.62
2019,01,06,03,40,990.49
2019,01,06,03,41,990.52
2019,01,06,03,42,990.55
2019,01,06,03,43,990.65
2019,01,06,03,44,990.65
2019,01,06,03,45,990.59
2019,01,06,03,46,990.69
2019,01,06,03,47,990.79
2019,01,06,03,48,990.86
2019,01,06,03,49,990.79
2019,01,06,03,50,990.76
2019,01,06,03,51,990.72
2019,01,06,03,52,990.72
2019,01,06,03,53,990.86
2019,01,06,03,54,990.86
2019,01,06,03,55,990.86
2019,01,06,03,56,990.96
2019,01,06,03,57,991.03
2019,01,06,03,58,991.13
2019,01,06,03,59,991.09
2019,01,06,04,00,991.09
2019,01,06,04,01,991.09
2019,01,06,04,02,991.09
2019,01,06,04,03,991.09
2019,01,06,04,04,991.20
2019,01,06,04,05,991.26
2019,01,06,04,06,991.33
2019,01,06,04,07,991.37
2019,01,06,04,08,991.43
2019,01,06,04,09,991.53
2019,01,06,04,10,991.50
2019,01,06,04,11,991.50
2019,01,06,04,12,991.57
2019,01,06,04,13,991.57
2019,01,06,04,14,991.64
2019,01,06,04,15,991.64
2019,01,06,04,16,991.67
2019,01,06,04,17,991.77
2019,01,06,04,18,991.70
2019,01,06,04,19,991.84
2019,01,06,04,20,991.87
2019,01,06,04,21,991.94
2019,01,06,04,22,992.01
2019,01,06,04,23,992.01
2019,01,06,04,24,992.11
2019,01,06,04,25,992.25
2019,01,06,04,26,992.25
2019,01,06,04,27,992.31
2019,01,06,04,28,992.45
2019,01,06,04,29,992.48
2019,01,06,04,30,992.52
2019,01,06,04,31,992.55
2019,01,06,04,32,992.62
2019,01,06,04,33,992.65
2019,01,06,04,34,992.79
2019,01,06,04,35,992.86
2019,01,06,04,36,992.89
2019,01,06,04,37,992.96
2019,01,06,04,38,993.03
2019,01,06,04,39,993.06
2019,01,06,04,40,993.06
2019,01,06,04,41,993.19
2019,01,06,04,42,993.23
2019,01,06,04,43,993.36
2019,01,06,04,44,993.26
2019,01,06,04,45,993.36
2019,01,06,04,46,993.47
2019,01,06,04,47,993.43
2019,01,06,04,48,993.50
2019,01,06,04,49,993.47
2019,01,06,04,50,993.53
2019,01,06,04,51,993.60
2019,01,06,04,52,993.67
2019,01,06,04,53,993.70
2019,01,06,04,54,993.80
2019,01,06,04,55,993.84
2019,01,06,04,56,993.87
2019,01,06,04,57,993.94
2019,01,06,04,58,994.04
2019,01,06,04,59,994.11
2019,01,06,05,00,994.21
2019,01,06,05,01,994.24
2019,01,06,05,02,994.31
2019,01,06,05,03,994.41
2019,01,06,05,04,994.31
2019,01,06,05,05,994.35
2019,01,06,05,06,994.48
2019,01,06,05,07,994.48
2019,01,06,05,08,994.45
2019,01,06,05,09,994.52
2019,01,06,05,10,994.68
2019,01,06,05,11,994.65
2019,01,06,05,12,994.75
2019,01,06,05,13,994.75
2019,01,06,05,14,994.82
2019,01,06,05,15,994.85
2019,01,06,05,16,994.89
2019,01,06,05,17,994.92
2019,01,06,05,18,994.96
2019,01,06,05,19,994.99
2019,01,06,05,20,995.09
2019,01,06,05,21,995.12
2019,01,06,05,22,995.26
2019,01,06,05,23,995.19
2019,01,06,05,24,995.26
2019,01,06,05,25,995.29
2019,01,06,05,26,995.33
2019,01,06,05,27,995.40
2019,01,06,05,28,995.36
2019,01,06,05,29,995.43
2019,01,06,05,30,995.40
2019,01,06,05,31,995.43
2019,01,06,05,32,995.43
2019,01,06,05,33,995.40
2019,01,06,05,34,995.40
2019,01,06,05,35,995.29
2019,01,06,05,36,995.33
2019,01,06,05,37,995.40
2019,01,06,05,38,995.40
2019,01,06,05,39,995.40
2019,01,06,05,40,995.50
2019,01,06,05,41,995.50
2019,01,06,05,42,995.53
2019,01,06,05,43,995.60
2019,01,06,05,44,995.60
2019,01,06,05,45,995.73
2019,01,06,05,46,995.80
2019,01,06,05,47,995.80
2019,01,06,05,48,995.80
2019,01,06,05,49,995.90
2019,01,06,05,50,995.90
2019,01,06,05,51,995.97
2019,01,06,05,52,996.07
2019,01,06,05,53,996.11
2019,01,06,05,54,996.17
2019,01,06,05,55,996.24
2019,01,06,05,56,996.17
2019,01,06,05,57,996.34
2019,01,06,05,58,996.17
2019,01,06,05,59,996.17
2019,01,06,06,00,996.21
2019,01,06,06,01,996.31
2019,01,06,06,02,996.31
2019,01,06,06,03,996.34
2019,01,06,06,04,996.41
2019,01,06,06,05,996.48
2019,01,06,06,06,996.58
2019,01,06,06,07,996.55
2019,01,06,06,08,996.58
2019,01,06,06,09,996.58
2019,01,06,06,10,996.61
2019,01,06,06,11,996.65
2019,01,06,06,12,996.68
2019,01,06,06,13,996.65
2019,01,06,06,14,996.72
2019,01,06,06,15,996.72
2019,01,06,06,16,996.82
2019,01,06,06,17,996.82
2019,01,06,06,18,996.85
2019,01,06,06,19,996.85
2019,01,06,06,20,996.92
2019,01,06,06,21,996.95
2019,01,06,06,22,996.95
2019,01,06,06,23,996.99
2019,01,06,06,24,996.95
2019,01,06,06,25,997.02
2019,01,06,06,26,996.95
2019,01,06,06,27,997.05
2019,01,06,06,28,996.99
2019,01,06,06,29,997.05
2019,01,06,06,30,997.12
2019,01,06,06,31,997.19
2019,01,06,06,32,997.22
2019,01,06,06,33,997.26
2019,01,06,06,34,997.33
2019,01,06,06,35,997.36
2019,01,06,06,36,997.36
2019,01,06,06,37,997.33
2019,01,06,06,38,997.26
2019,01,06,06,39,997.26
2019,01,06,06,40,997.29
2019,01,06,06,41,997.26
2019,01,06,06,42,997.19
2019,01,06,06,43,997.19
2019,01,06,06,44,997.22
2019,01,06,06,45,997.22
2019,01,06,06,46,997.29
2019,01,06,06,47,997.22
2019,01,06,06,48,997.26
2019,01,06,06,49,997.29
2019,01,06,06,50,997.29
2019,01,06,06,51,997.29
2019,01,06,06,52,997.29
2019,01,06,06,53,997.29
2019,01,06,06,54,997.36
2019,01,06,06,55,997.36
2019,01,06,06,56,997.43
2019,01,06,06,57,997.43
2019,01,06,06,58,997.50
2019,01,06,06,59,997.53
2019,01,06,07,00,997.56
2019,01,06,07,01,997.53
2019,01,06,07,02,997.53
2019,01,06,07,03,997.53
2019,01,06,07,04,997.60
2019,01,06,07,05,997.60
2019,01,06,07,06,997.63
2019,01,06,07,07,997.60
2019,01,06,07,08,997.63
2019,01,06,07,09,997.60
2019,01,06,07,10,997.60
2019,01,06,07,11,997.66
2019,01,06,07,12,997.63
2019,01,06,07,13,997.70
2019,01,06,07,14,997.77
2019,01,06,07,15,997.80
2019,01,06,07,16,997.87
2019,01,06,07,17,997.87
2019,01,06,07,18,997.90
2019,01,06,07,19,997.87
2019,01,06,07,20,997.90
2019,01,06,07,21,998.00
2019,01,06,07,22,998.00
2019,01,06,07,23,998.00
2019,01,06,07,24,998.10
2019,01,06,07,25,998.10
2019,01,06,07,26,998.14
2019,01,06,07,27,998.24
2019,01,06,07,28,998.21
2019,01,06,07,29,998.24
2019,01,06,07,30,998.27
2019,01,06,07,31,998.38
2019,01,06,07,32,998.41
2019,01,06,07,33,998.38
2019,01,06,07,34,998.44
2019,01,06,07,35,998.38
2019,01,06,07,36,998.41
2019,01,06,07,37,998.44
2019,01,06,07,38,998.48
2019,01,06,07,39,998.58
2019,01,06,07,40,998.51
2019,01,06,07,41,998.54
2019,01,06,07,42,998.58
2019,01,06,07,43,998.61
2019,01,06,07,44,998.58
2019,01,06,07,45,998.54
2019,01,06,07,46,998.54
2019,01,06,07,47,998.54
2019,01,06,07,48,998.58
2019,01,06,07,49,998.54
2019,01,06,07,50,998.65
2019,01,06,07,51,998.68
2019,01,06,07,52,998.65
2019,01,06,07,53,998.65
2019,01,06,07,54,998.65
2019,01,06,07,55,998.68
2019,01,06,07,56,998.71
2019,01,06,07,57,998.75
2019,01,06,07,58,998.65
2019,01,06,07,59,998.61
2019,01,06,08,00,998.68
2019,01,06,08,01,998.68
2019,01,06,08,02,998.68
2019,01,06,08,03,998.65
2019,01,06,08,04,998.61
2019,01,06,08,05,998.61
2019,01,06,08,06,998.68
2019,01,06,08,07,998.61
2019,01,06,08,08,998.74
2019,01,06,08,09,998.88
2019,01,06,08,10,998.95
2019,01,06,08,11,998.88
2019,01,06,08,12,998.99
2019,01,06,08,13,999.02
2019,01,06,08,14,999.02
2019,01,06,08,15,999.12
2019,01,06,08,16,999.12
2019,01,06,08,17,999.09
2019,01,06,08,18,999.19
2019,01,06,08,19,999.22
2019,01,06,08,20,999.32
2019,01,06,08,21,999.43
2019,01,06,08,22,999.39
2019,01,06,08,23,999.39
2019,01,06,08,24,999.43
2019,01,06,08,25,999.46
2019,01,06,08,26,999.32
2019,01,06,08,27,999.36
2019,01,06,08,28,999.39
2019,01,06,08,29,999.39
2019,01,06,08,30,999.39
2019,01,06,08,31,999.39
2019,01,06,08,32,999.39
2019,01,06,08,33,999.43
2019,01,06,08,34,999.43
2019,01,06,08,35,999.53
2019,01,06,08,36,999.56
2019,01,06,08,37,999.53
2019,01,06,08,38,999.59
2019,01,06,08,39,999.56
2019,01,06,08,40,999.59
2019,01,06,08,41,999.56
2019,01,06,08,42,999.53
2019,01,06,08,43,999.56
2019,01,06,08,44,999.49
2019,01,06,08,45,999.46
2019,01,06,08,46,999.46
2019,01,06,08,47,999.49
2019,01,06,08,48,999.49
2019,01,06,08,49,999.53
2019,01,06,08,50,999.56
2019,01,06,08,51,999.56
2019,01,06,08,52,999.53
2019,01,06,08,53,999.56
2019,01,06,08,54,999.56
2019,01,06,08,55,999.56
2019,01,06,08,56,999.53
2019,01,06,08,57,999.56
2019,01,06,08,58,999.56
2019,01,06,08,59,999.56
2019,01,06,09,00,999.56
2019,01,06,09,01,999.59
2019,01,06,09,02,999.63
2019,01,06,09,03,999.63
2019,01,06,09,04,999.63
2019,01,06,09,05,999.66
2019,01,06,09,06,999.70
2019,01,06,09,07,999.66
2019,01,06,09,08,999.70
2019,01,06,09,09,999.66
2019,01,06,09,10,999.63
2019,01,06,09,11,999.70
2019,01,06,09,12,999.66
2019,01,06,09,13,999.79
2019,01,06,09,14,999.76
2019,01,06,09,15,999.80
2019,01,06,09,16,999.80
2019,01,06,09,17,999.83
2019,01,06,09,18,999.87
2019,01,06,09,19,999.83
2019,01,06,09,20,999.87
2019,01,06,09,21,999.83
2019,01,06,09,22,999.93
2019,01,06,09,23,999.93
2019,01,06,09,24,999.97
2019,01,06,09,25,999.97
2019,01,06,09,26,1000.00
2019,01,06,09,27,1000.03
2019,01,06,09,28,1000.00
2019,01,06,09,29,1000.00
2019,01,06,09,30,1000.00
2019,01,06,09,31,1000.00
2019,01,06,09,32,1000.03
2019,01,06,09,33,1000.07
2019,01,06,09,34,1000.03
2019,01,06,09,35,1000.03
2019,01,06,09,36,1000.03
2019,01,06,09,37,1000.03
2019,01,06,09,38,1000.07
2019,01,06,09,39,1000.07
2019,01,06,09,40,1000.10
2019,01,06,09,41,1000.10
2019,01,06,09,42,1000.10
2019,01,06,09,43,1000.14
2019,01,06,09,44,1000.14
2019,01,06,09,45,1000.10
2019,01,06,09,46,1000.14
2019,01,06,09,47,1000.14
2019,01,06,09,48,1000.14
2019,01,06,09,49,1000.14
2019,01,06,09,50,1000.14
2019,01,06,09,51,1000.14
2019,01,06,09,52,1000.14
2019,01,06,09,53,1000.17
2019,01,06,09,54,1000.17
2019,01,06,09,55,1000.14
2019,01,06,09,56,1000.07
2019,01,06,09,57,1000.10
2019,01,06,09,58,1000.03
2019,01,06,09,59,1000.03
2019,01,06,10,00,1000.03
2019,01,06,10,01,1000.07
2019,01,06,10,02,1000.07
2019,01,06,10,03,1000.10
2019,01,06,10,04,1000.10
2019,01,06,10,05,1000.14
2019,01,06,10,06,1000.10
2019,01,06,10,07,1000.07
2019,01,06,10,08,1000.10
2019,01,06,10,09,1000.10
2019,01,06,10,10,1000.10
2019,01,06,10,11,1000.07
2019,01,06,10,12,1000.03
2019,01,06,10,13,1000.07
2019,01,06,10,14,1000.03
2019,01,06,10,15,1000.03
2019,01,06,10,16,1000.10
2019,01,06,10,17,1000.07
2019,01,06,10,18,1000.07
2019,01,06,10,19,1000.07
2019,01,06,10,20,1000.07
2019,01,06,10,21,1000.07
2019,01,06,10,22,1000.10
2019,01,06,10,23,1000.07
2019,01,06,10,24,1000.14
2019,01,06,10,25,1000.14
2019,01,06,10,26,1000.10
2019,01,06,10,27,1000.10
2019,01,06,10,28,1000.10
2019,01,06,10,29,1000.17
2019,01,06,10,30,1000.14
2019,01,06,10,31,1000.17
2019,01,06,10,32,1000.14
2019,01,06,10,33,1000.17
2019,01,06,10,34,1000.10
2019,01,06,10,35,1000.17
2019,01,06,10,36,1000.20
2019,01,06,10,37,1000.20
2019,01,06,10,38,1000.24
2019,01,06,10,39,1000.20
2019,01,06,10,40,1000.20
2019,01,06,10,41,1000.24
2019,01,06,10,42,1000.24
2019,01,06,10,43,1000.24
2019,01,06,10,44,1000.27
2019,01,06,10,45,1000.27
2019,01,06,10,46,1000.24
2019,01,06,10,47,1000.20
2019,01,06,10,48,1000.20
2019,01,06,10,49,1000.24
2019,01,06,10,50,1000.20
2019,01,06,10,51,1000.27
2019,01,06,10,52,1000.27
2019,01,06,10,53,1000.27
2019,01,06,10,54,1000.24
2019,01,06,10,55,1000.24
2019,01,06,10,56,1000.20
2019,01,06,10,57,1000.27
2019,01,06,10,58,1000.27
2019,01,06,10,59,1000.20
2019,01,06,11,00,1000.27
2019,01,06,11,01,1000.24
2019,01,06,11,02,1000.24
2019,01,06,11,03,1000.27
2019,01,06,11,04,1000.27
2019,01,06,11,05,1000.24
2019,01,06,11,06,1000.27
2019,01,06,11,07,1000.24
2019,01,06,11,08,1000.27
2019,01,06,11,09,1000.20
2019,01,06,11,10,1000.24
2019,01,06,11,11,1000.20
2019,01,06,11,12,1000.20
2019,01,06,11,13,1000.17
2019,01,06,11,14,1000.20
2019,01,06,11,15,1000.17
2019,01,06,11,16,1000.20
2019,01,06,11,17,1000.24
2019,01,06,11,18,1000.20
2019,01,06,11,19,1000.24
2019,01,06,11,20,1000.17
2019,01,06,11,21,1000.17
2019,01,06,11,22,1000.20
2019,01,06,11,23,1000.17
2019,01,06,11,24,1000.10
2019,01,06,11,25,1000.10
2019,01,06,11,26,1000.10
2019,01,06,11,27,1000.10
2019,01,06,11,28,1000.10
2019,01,06,11,29,1000.07
2019,01,06,11,30,1000.07
2019,01,06,11,31,1000.00
2019,01,06,11,32,1000.07
2019,01,06,11,33,1000.10
2019,01,06,11,34,1000.07
2019,01,06,11,35,1000.00
2019,01,06,11,36,999.97
2019,01,06,11,37,999.97
2019,01,06,11,38,999.97
2019,01,06,11,39,1000.00
2019,01,06,11,40,1000.03
2019,01,06,11,41,1000.00
2019,01,06,11,42,999.97
2019,01,06,11,43,999.97
2019,01,06,11,44,999.93
2019,01,06,11,45,999.97
2019,01,06,11,46,999.97
2019,01,06,11,47,1000.00
2019,01,06,11,48,999.90
2019,01,06,11,49,999.90
2019,01,06,11,50,999.90
2019,01,06,11,51,999.87
2019,01,06,11,52,999.87
2019,01,06,11,53,999.83
2019,01,06,11,54,999.90
2019,01,06,11,55,999.87
2019,01,06,11,56,999.93
2019,01,06,11,57,999.90
2019,01,06,11,58,999.93
2019,01,06,11,59,999.93
2019,01,06,12,00,999.93
2019,01,06,12,01,999.97
2019,01,06,12,02,999.97
2019,01,06,12,03,1000.03
2019,01,06,12,04,1000.00
2019,01,06,12,05,1000.00
2019,01,06,12,06,1000.00
2019,01,06,12,07,1000.07
2019,01,06,12,08,1000.07
2019,01,06,12,09,1000.07
2019,01,06,12,10,1000.07
2019,01,06,12,11,1000.07
2019,01,06,12,12,1000.07
2019,01,06,12,13,1000.07
2019,01,06,12,14,1000.10
2019,01,06,12,15,1000.07
2019,01,06,12,16,1000.07
2019,01,06,12,17,1000.10
2019,01,06,12,18,1000.07
2019,01,06,12,19,1000.07
2019,01,06,12,20,1000.10
2019,01,06,12,21,1000.03
2019,01,06,12,22,1000.10
2019,01,06,12,23,1000.10
2019,01,06,12,24,1000.14
2019,01,06,12,25,1000.07
2019,01,06,12,26,1000.10
2019,01,06,12,27,1000.10
2019,01,06,12,28,1000.10
2019,01,06,12,29,1000.07
2019,01,06,12,30,1000.10
2019,01,06,12,31,1000.07
2019,01,06,12,32,1000.07
2019,01,06,12,33,1000.10
2019,01,06,12,34,1000.14
2019,01,06,12,35,1000.10
2019,01,06,12,36,1000.10
2019,01,06,12,37,1000.10
2019,01,06,12,38,1000.10
2019,01,06,12,39,1000.10
2019,01,06,12,40,1000.07
2019,01,06,12,41,1000.14
2019,01,06,12,42,1000.10
2019,01,06,12,43,1000.07
2019,01,06,12,44,1000.14
2019,01,06,12,45,1000.10
2019,01,06,12,46,1000.10
2019,01,06,12,47,1000.17
2019,01,06,12,48,1000.10
2019,01,06,12,49,1000.10
2019,01,06,12,50,1000.10
2019,01,06,12,51,1000.17
2019,01,06,12,52,1000.17
2019,01,06,12,53,1000.20
2019,01,06,12,54,1000.20
2019,01,06,12,55,1000.20
2019,01,06,12,56,1000.20
2019,01,06,12,57,1000.17
2019,01,06,12,58,1000.20
2019,01,06,12,59,1000.14
2019,01,06,13,00,1000.17
2019,01,06,13,01,1000.24
2019,01,06,13,02,1000.17
2019,01,06,13,03,1000.17
2019,01,06,13,04,1000.10
2019,01,06,13,05,1000.14
2019,01,06,13,06,1000.14
2019,01,06,13,07,1000.14
2019,01,06,13,08,1000.17
2019,01,06,13,09,1000.14
2019,01,06,13,10,1000.17
2019,01,06,13,11,1000.10
2019,01,06,13,12,1000.17
2019,01,06,13,13,1000.17
2019,01,06,13,14,1000.17
2019,01,06,13,15,1000.17
2019,01,06,13,16,1000.17
2019,01,06,13,17,1000.20
2019,01,06,13,18,1000.20
2019,01,06,13,19,1000.20
2019,01,06,13,20,1000.24
2019,01,06,13,21,1000.20
2019,01,06,13,22,1000.17
2019,01,06,13,23,1000.17
2019,01,06,13,24,1000.17
2019,01,06,13,25,1000.20
2019,01,06,13,26,1000.20
2019,01,06,13,27,1000.20
2019,01,06,13,28,1000.20
2019,01,06,13,29,1000.20
2019,01,06,13,30,1000.20
2019,01,06,13,31,1000.24
2019,01,06,13,32,1000.27
2019,01,06,13,33,1000.20
2019,01,06,13,34,1000.20
2019,01,06,13,35,1000.20
2019,01,06,13,36,1000.24
2019,01,06,13,37,1000.27
2019,01,06,13,38,1000.31
2019,01,06,13,39,1000.31
2019,01,06,13,40,1000.31
2019,01,06,13,41,1000.31
2019,01,06,13,42,1000.34
2019,01,06,13,43,1000.37
2019,01,06,13,44,1000.37
2019,01,06,13,45,1000.37
2019,01,06,13,46,1000.41
2019,01,06,13,47,1000.41
2019,01,06,13,48,1000.37
2019,01,06,13,49,1000.44
2019,01,06,13,50,1000.41
2019,01,06,13,51,1000.37
2019,01,06,13,52,1000.37
2019,01,06,13,53,1000.44
2019,01,06,13,54,1000.41
2019,01,06,13,55,1000.37
2019,01,06,13,56,1000.44
2019,01,06,13,57,1000.44
2019,01,06,13,58,1000.44
2019,01,06,13,59,1000.44
2019,01,06,14,00,1000.41
2019,01,06,14,01,1000.41
2019,01,06,14,02,1000.37
2019,01,06,14,03,1000.34
2019,01,06,14,04,1000.37
2019,01,06,14,05,1000.34
2019,01,06,14,06,1000.34
2019,01,06,14,07,1000.31
2019,01,06,14,08,1000.34
2019,01,06,14,09,1000.31
2019,01,06,14,10,1000.31
2019,01,06,14,11,1000.34
2019,01,06,14,12,1000.31
2019,01,06,14,13,1000.31
2019,01,06,14,14,1000.31
2019,01,06,14,15,1000.27
2019,01,06,14,16,1000.34
2019,01,06,14,17,1000.31
2019,01,06,14,18,1000.27
2019,01,06,14,19,1000.27
2019,01,06,14,20,1000.31
2019,01,06,14,21,1000.34
2019,01,06,14,22,1000.31
2019,01,06,14,23,1000.37
2019,01,06,14,24,1000.37
2019,01,06,14,25,1000.37
2019,01,06,14,26,1000.41
2019,01,06,14,27,1000.41
2019,01,06,14,28,1000.41
2019,01,06,14,29,1000.48
2019,01,06,14,30,1000.44
2019,01,06,14,31,1000.44
2019,01,06,14,32,1000.48
2019,01,06,14,33,1000.58
2019,01,06,14,34,1000.54
2019,01,06,14,35,1000.61
2019,01,06,14,36,1000.54
2019,01,06,14,37,1000.54
2019,01,06,14,38,1000.61
2019,01,06,14,39,1000.64
2019,01,06,14,40,1000.61
2019,01,06,14,41,1000.61
2019,01,06,14,42,1000.61
2019,01,06,14,43,1000.58
2019,01,06,14,44,1000.58
2019,01,06,14,45,1000.58
2019,01,06,14,46,1000.58
2019,01,06,14,47,1000.58
2019,01,06,14,48,1000.54
2019,01,06,14,49,1000.54
2019,01,06,14,50,1000.54
2019,01,06,14,51,1000.58
2019,01,06,14,52,1000.58
2019,01,06,14,53,1000.58
2019,01,06,14,54,1000.61
2019,01,06,14,55,1000.61
2019,01,06,14,56,1000.58
2019,01,06,14,57,1000.64
2019,01,06,14,58,1000.61
2019,01,06,14,59,1000.64
2019,01,06,15,00,1000.68
2019,01,06,15,01,1000.68
2019,01,06,15,02,1000.68
2019,01,06,15,03,1000.68
2019,01,06,15,04,1000.64
2019,01,06,15,05,1000.64
2019,01,06,15,06,1000.68
2019,01,06,15,07,1000.68
2019,01,06,15,08,1000.64
2019,01,06,15,09,1000.61
2019,01,06,15,10,1000.64
2019,01,06,15,11,1000.68
2019,01,06,15,12,1000.64
2019,01,06,15,13,1000.64
2019,01,06,15,14,1000.58
2019,01,06,15,15,1000.61
2019,01,06,15,16,1000.61
2019,01,06,15,17,1000.58
2019,01,06,15,18,1000.61
2019,01,06,15,19,1000.61
2019,01,06,15,20,1000.61
2019,01,06,15,21,1000.61
2019,01,06,15,22,1000.64
2019,01,06,15,23,1000.61
2019,01,06,15,24,1000.61
2019,01,06,15,25,1000.54
2019,01,06,15,26,1000.54
2019,01,06,15,27,1000.51
2019,01,06,15,28,1000.58
2019,01,06,15,29,1000.48
2019,01,06,15,30,1000.51
2019,01,06,15,31,1000.48
2019,01,06,15,32,1000.48
2019,01,06,15,33,1000.48
2019,01,06,15,34,1000.48
2019,01,06,15,35,1000.44
2019,01,06,15,36,1000.44
2019,01,06,15,37,1000.44
2019,01,06,15,38,1000.44
2019,01,06,15,39,1000.44
2019,01,06,15,40,1000.41
2019,01,06,15,41,1000.48
2019,01,06,15,42,1000.48
2019,01,06,15,43,1000.44
2019,01,06,15,44,1000.44
2019,01,06,15,45,1000.48
2019,01,06,15,46,1000.48
2019,01,06,15,47,1000.48
2019,01,06,15,48,1000.48
2019,01,06,15,49,1000.44
2019,01,06,15,50,1000.51
2019,01,06,15,51,1000.51
2019,01,06,15,52,1000.48
2019,01,06,15,53,1000.48
2019,01,06,15,54,1000.51
2019,01,06,15,55,1000.51
2019,01,06,15,56,1000.51
2019,01,06,15,57,1000.51
2019,01,06,15,58,1000.51
2019,01,06,15,59,1000.51
2019,01,06,16,00,1000.51
2019,01,06,16,01,1000.54
2019,01,06,16,02,1000.58
2019,01,06,16,03,1000.58
2019,01,06,16,04,1000.61
2019,01,06,16,05,1000.64
2019,01,06,16,06,1000.64
2019,01,06,16,07,1000.68
2019,01,06,16,08,1000.64
2019,01,06,16,09,1000.68
2019,01,06,16,10,1000.68
2019,01,06,16,11,1000.68
2019,01,06,16,12,1000.64
2019,01,06,16,13,1000.68
2019,01,06,16,14,1000.64
2019,01,06,16,15,1000.64
2019,01,06,16,16,1000.64
2019,01,06,16,17,1000.61
2019,01,06,16,18,1000.68
2019,01,06,16,19,1000.64